Location: Augustenthal
(51.7167°N, 10.2833°E)
Time: 23:14:29
(UTC+00:00)

ERBS - Pass Details

Date: 18 May 2021
Orbit: 399 x 417 km, 57.0° (Epoch: 24 June)

Event Time Altitude Azimuth Distance (km) Brightness Sun altitude
Rises 20:33:21 0° 296° (WNW) 2,354 7.3 -10.3°
Reaches altitude 10° 20:35:34 10° 286° (WNW) 1,491 5.9 -10.5°
Maximum altitude 20:38:33 30° 222° (SW) 766 3.5 -10.8°
Enters shadow 20:40:42 16° 167° (SSE) 1,202 4.0 -11.0°
